owner,sensor,date,latitude,longitude,air_pressure(mBar),qcFlag 
WAVCIS,ioos:station:WAVCIS:CSI09:1,2010-05-01T00:00:00Z,29.1015,-89.9782,1004.853,11111222 
WAVCIS,ioos:station:WAVCIS:CSI09:1,2010-05-01T01:00:00Z,29.1015,-89.9782,1005.197,11111222 
WAVCIS,ioos:station:WAVCIS:CSI09:1,2010-05-01T02:00:00Z,29.1015,-89.9782,1005.835,11111222 
WAVCIS,ioos:station:WAVCIS:CSI09:1,2010-05-01T03:00:00Z,29.1015,-89.9782,1006.176,11111222 
WAVCIS,ioos:station:WAVCIS:CSI09:1,2010-05-01T04:00:00Z,29.1015,-89.9782,1006.269,11111222 
WAVCIS,ioos:station:WAVCIS:CSI09:1,2010-05-01T05:00:00Z,29.1015,-89.9782,1006.168,11111222 
WAVCIS,ioos:station:WAVCIS:CSI09:1,2010-05-01T06:00:00Z,29.1015,-89.9782,1005.753,11111222 
WAVCIS,ioos:station:WAVCIS:CSI09:1,2010-05-01T07:00:00Z,29.1015,-89.9782,1005.241,11111222 
WAVCIS,ioos:station:WAVCIS:CSI09:1,2010-05-01T08:00:00Z,29.1015,-89.9782,1004.778,11111222 
WAVCIS,ioos:station:WAVCIS:CSI09:1,2010-05-01T09:00:00Z,29.1015,-89.9782,1004.686,11111222 
WAVCIS,ioos:station:WAVCIS:CSI09:1,2010-05-01T10:00:00Z,29.1015,-89.9782,1004.891,11111222 
WAVCIS,ioos:station:WAVCIS:CSI09:1,2010-05-01T11:00:00Z,29.1015,-89.9782,1005.188,11111222 
WAVCIS,ioos:station:WAVCIS:CSI09:1,2010-05-01T12:00:00Z,29.1015,-89.9782,1005.525,11111222 
WAVCIS,ioos:station:WAVCIS:CSI09:1,2010-05-01T13:00:00Z,29.1015,-89.9782,1005.664,11111222 
WAVCIS,ioos:station:WAVCIS:CSI09:1,2010-05-01T14:00:00Z,29.1015,-89.9782,1005.919,11111222 
WAVCIS,ioos:station:WAVCIS:CSI09:1,2010-05-01T15:00:00Z,29.1015,-89.9782,1006.444,11111222 
WAVCIS,ioos:station:WAVCIS:CSI09:1,2010-05-01T16:00:00Z,29.1015,-89.9782,1006.708,11111222 
WAVCIS,ioos:station:WAVCIS:CSI09:1,2010-05-01T17:00:00Z,29.1015,-89.9782,1006.988,11111222 
WAVCIS,ioos:station:WAVCIS:CSI09:1,2010-05-01T18:00:00Z,29.1015,-89.9782,1006.409,11111222 
WAVCIS,ioos:station:WAVCIS:CSI09:1,2010-05-01T19:00:00Z,29.1015,-89.9782,1005.728,11111222 
WAVCIS,ioos:station:WAVCIS:CSI09:1,2010-05-01T20:00:00Z,29.1015,-89.9782,1005.034,11111222 
WAVCIS,ioos:station:WAVCIS:CSI09:1,2010-05-01T21:00:00Z,29.1015,-89.9782,1004.258,11111222 
WAVCIS,ioos:station:WAVCIS:CSI09:1,2010-05-01T22:00:00Z,29.1015,-89.9782,1003.624,11111222 
WAVCIS,ioos:station:WAVCIS:CSI09:1,2010-05-01T23:00:00Z,29.1015,-89.9782,1003.511,11111222 
WAVCIS,ioos:station:WAVCIS:CSI09:1,2010-05-02T00:00:00Z,29.1015,-89.9782,1003.792,11111222 
WAVCIS,ioos:station:WAVCIS:CSI09:1,2010-05-02T01:00:00Z,29.1015,-89.9782,1004.215,11111222 
WAVCIS,ioos:station:WAVCIS:CSI09:1,2010-05-02T02:00:00Z,29.1015,-89.9782,1004.726,11111222 
WAVCIS,ioos:station:WAVCIS:CSI09:1,2010-05-02T03:00:00Z,29.1015,-89.9782,1005.185,11111222 
WAVCIS,ioos:station:WAVCIS:CSI09:1,2010-05-02T04:00:00Z,29.1015,-89.9782,1004.969,11111222 
WAVCIS,ioos:station:WAVCIS:CSI09:1,2010-05-02T05:00:00Z,29.1015,-89.9782,1004.666,11111222 
WAVCIS,ioos:station:WAVCIS:CSI09:1,2010-05-02T06:00:00Z,29.1015,-89.9782,1004.749,11111222 
WAVCIS,ioos:station:WAVCIS:CSI09:1,2010-05-02T07:00:00Z,29.1015,-89.9782,1004.334,11111222 
WAVCIS,ioos:station:WAVCIS:CSI09:1,2010-05-02T08:00:00Z,29.1015,-89.9782,1004.278,11111222 
WAVCIS,ioos:station:WAVCIS:CSI09:1,2010-05-02T09:00:00Z,29.1015,-89.9782,1003.987,11111222 
WAVCIS,ioos:station:WAVCIS:CSI09:1,2010-05-02T10:00:00Z,29.1015,-89.9782,1003.777,11111222 
WAVCIS,ioos:station:WAVCIS:CSI09:1,2010-05-02T11:00:00Z,29.1015,-89.9782,1004.068,11111222 
WAVCIS,ioos:station:WAVCIS:CSI09:1,2010-05-02T12:00:00Z,29.1015,-89.9782,1005.421,11111222 
WAVCIS,ioos:station:WAVCIS:CSI09:1,2010-05-02T13:00:00Z,29.1015,-89.9782,1006.345,11111222 
WAVCIS,ioos:station:WAVCIS:CSI09:1,2010-05-02T14:00:00Z,29.1015,-89.9782,1006.349,11111222 
WAVCIS,ioos:station:WAVCIS:CSI09:1,2010-05-02T15:00:00Z,29.1015,-89.9782,1006.954,11111222 
WAVCIS,ioos:station:WAVCIS:CSI09:1,2010-05-02T16:00:00Z,29.1015,-89.9782,1007.5,11111222 
WAVCIS,ioos:station:WAVCIS:CSI09:1,2010-05-02T17:00:00Z,29.1015,-89.9782,1008.12,11111222 
WAVCIS,ioos:station:WAVCIS:CSI09:1,2010-05-02T18:00:00Z,29.1015,-89.9782,1008.31,11111222 
WAVCIS,ioos:station:WAVCIS:CSI09:1,2010-05-02T19:00:00Z,29.1015,-89.9782,1007.64,11111222 
WAVCIS,ioos:station:WAVCIS:CSI09:1,2010-05-02T20:00:00Z,29.1015,-89.9782,1007.17,11111222 
WAVCIS,ioos:station:WAVCIS:CSI09:1,2010-05-02T21:00:00Z,29.1015,-89.9782,1006.965,11111222 
WAVCIS,ioos:station:WAVCIS:CSI09:1,2010-05-02T22:00:00Z,29.1015,-89.9782,1006.947,11111222 
WAVCIS,ioos:station:WAVCIS:CSI09:1,2010-05-02T23:00:00Z,29.1015,-89.9782,1007.32,11111222 
WAVCIS,ioos:station:WAVCIS:CSI09:1,2010-05-03T00:00:00Z,29.1015,-89.9782,1007.5,11111222 
WAVCIS,ioos:station:WAVCIS:CSI09:1,2010-05-03T01:00:00Z,29.1015,-89.9782,1008.19,11111222 
WAVCIS,ioos:station:WAVCIS:CSI09:1,2010-05-03T02:00:00Z,29.1015,-89.9782,1008.79,11111222 
WAVCIS,ioos:station:WAVCIS:CSI09:1,2010-05-03T03:00:00Z,29.1015,-89.9782,1009.38,11111222 
WAVCIS,ioos:station:WAVCIS:CSI09:1,2010-05-03T04:00:00Z,29.1015,-89.9782,1009.56,11111222 
WAVCIS,ioos:station:WAVCIS:CSI09:1,2010-05-03T05:00:00Z,29.1015,-89.9782,1009.34,11111222 
WAVCIS,ioos:station:WAVCIS:CSI09:1,2010-05-03T06:00:00Z,29.1015,-89.9782,1009.21,11111222 
WAVCIS,ioos:station:WAVCIS:CSI09:1,2010-05-03T07:00:00Z,29.1015,-89.9782,1009.46,11111222 
WAVCIS,ioos:station:WAVCIS:CSI09:1,2010-05-03T08:00:00Z,29.1015,-89.9782,1009.32,11111222 
WAVCIS,ioos:station:WAVCIS:CSI09:1,2010-05-03T09:00:00Z,29.1015,-89.9782,1009.72,11111222 
WAVCIS,ioos:station:WAVCIS:CSI09:1,2010-05-03T10:00:00Z,29.1015,-89.9782,1010.24,11111222 
WAVCIS,ioos:station:WAVCIS:CSI09:1,2010-05-03T11:00:00Z,29.1015,-89.9782,1010.52,11111222 
WAVCIS,ioos:station:WAVCIS:CSI09:1,2010-05-03T12:00:00Z,29.1015,-89.9782,1011.18,11111222 
WAVCIS,ioos:station:WAVCIS:CSI09:1,2010-05-03T13:00:00Z,29.1015,-89.9782,1011.85,11111222 
WAVCIS,ioos:station:WAVCIS:CSI09:1,2010-05-03T14:00:00Z,29.1015,-89.9782,1012.19,11111222 
WAVCIS,ioos:station:WAVCIS:CSI09:1,2010-05-03T15:00:00Z,29.1015,-89.9782,1012.47,11111222 
WAVCIS,ioos:station:WAVCIS:CSI09:1,2010-05-03T16:00:00Z,29.1015,-89.9782,1012.66,11111222 
WAVCIS,ioos:station:WAVCIS:CSI09:1,2010-05-03T17:00:00Z,29.1015,-89.9782,1012.58,11111222 
WAVCIS,ioos:station:WAVCIS:CSI09:1,2010-05-03T18:00:00Z,29.1015,-89.9782,1012.15,11111222 
WAVCIS,ioos:station:WAVCIS:CSI09:1,2010-05-03T19:00:00Z,29.1015,-89.9782,1012.03,11111222 
WAVCIS,ioos:station:WAVCIS:CSI09:1,2010-05-03T20:00:00Z,29.1015,-89.9782,1011.92,11111222 
WAVCIS,ioos:station:WAVCIS:CSI09:1,2010-05-03T21:00:00Z,29.1015,-89.9782,1011.3,11111222 
WAVCIS,ioos:station:WAVCIS:CSI09:1,2010-05-03T22:00:00Z,29.1015,-89.9782,1011.09,11111222 
WAVCIS,ioos:station:WAVCIS:CSI09:1,2010-05-03T23:00:00Z,29.1015,-89.9782,1011.18,11111222 
WAVCIS,ioos:station:WAVCIS:CSI09:1,2010-05-04T00:00:00Z,29.1015,-89.9782,1011.05,11111222 
WAVCIS,ioos:station:WAVCIS:CSI09:1,2010-05-04T01:00:00Z,29.1015,-89.9782,1011.44,11111222 
WAVCIS,ioos:station:WAVCIS:CSI09:1,2010-05-04T02:00:00Z,29.1015,-89.9782,1011.8,11111222 
WAVCIS,ioos:station:WAVCIS:CSI09:1,2010-05-04T03:00:00Z,29.1015,-89.9782,1012.26,11111222 
WAVCIS,ioos:station:WAVCIS:CSI09:1,2010-05-04T04:00:00Z,29.1015,-89.9782,1012.31,11111222 
WAVCIS,ioos:station:WAVCIS:CSI09:1,2010-05-04T05:00:00Z,29.1015,-89.9782,1012.1,11111222 
WAVCIS,ioos:station:WAVCIS:CSI09:1,2010-05-04T06:00:00Z,29.1015,-89.9782,1012.03,11111222 
WAVCIS,ioos:station:WAVCIS:CSI09:1,2010-05-04T07:00:00Z,29.1015,-89.9782,1011.42,11111222 
WAVCIS,ioos:station:WAVCIS:CSI09:1,2010-05-04T08:00:00Z,29.1015,-89.9782,1011.16,11111222 
WAVCIS,ioos:station:WAVCIS:CSI09:1,2010-05-04T09:00:00Z,29.1015,-89.9782,1011.31,11111222 
WAVCIS,ioos:station:WAVCIS:CSI09:1,2010-05-04T10:00:00Z,29.1015,-89.9782,1011.48,11111222 
WAVCIS,ioos:station:WAVCIS:CSI09:1,2010-05-04T11:00:00Z,29.1015,-89.9782,1011.83,11111222 
WAVCIS,ioos:station:WAVCIS:CSI09:1,2010-05-04T12:00:00Z,29.1015,-89.9782,1012.12,11111222 
WAVCIS,ioos:station:WAVCIS:CSI09:1,2010-05-04T13:00:00Z,29.1015,-89.9782,1012.72,11111222 
WAVCIS,ioos:station:WAVCIS:CSI09:1,2010-05-04T14:00:00Z,29.1015,-89.9782,1012.85,11111222 
WAVCIS,ioos:station:WAVCIS:CSI09:1,2010-05-04T15:00:00Z,29.1015,-89.9782,1013.2,11111222 
WAVCIS,ioos:station:WAVCIS:CSI09:1,2010-05-04T16:00:00Z,29.1015,-89.9782,1013.36,11111222 
WAVCIS,ioos:station:WAVCIS:CSI09:1,2010-05-04T17:00:00Z,29.1015,-89.9782,1013.42,11111222 
WAVCIS,ioos:station:WAVCIS:CSI09:1,2010-05-04T18:00:00Z,29.1015,-89.9782,1013.15,11111222 
WAVCIS,ioos:station:WAVCIS:CSI09:1,2010-05-04T19:00:00Z,29.1015,-89.9782,1012.91,11111222 
WAVCIS,ioos:station:WAVCIS:CSI09:1,2010-05-04T20:00:00Z,29.1015,-89.9782,1012.63,11111222 
WAVCIS,ioos:station:WAVCIS:CSI09:1,2010-05-04T21:00:00Z,29.1015,-89.9782,1011.97,11111222 
WAVCIS,ioos:station:WAVCIS:CSI09:1,2010-05-04T22:00:00Z,29.1015,-89.9782,1011.8,11111222 
WAVCIS,ioos:station:WAVCIS:CSI09:1,2010-05-04T23:00:00Z,29.1015,-89.9782,1011.56,11111222 
WAVCIS,ioos:station:WAVCIS:CSI09:1,2010-05-05T00:00:00Z,29.1015,-89.9782,1011.47,11111222 
WAVCIS,ioos:station:WAVCIS:CSI09:1,2010-05-05T01:00:00Z,29.1015,-89.9782,1011.71,11111222 
WAVCIS,ioos:station:WAVCIS:CSI09:1,2010-05-05T02:00:00Z,29.1015,-89.9782,1012.2,11111222 
WAVCIS,ioos:station:WAVCIS:CSI09:1,2010-05-05T03:00:00Z,29.1015,-89.9782,1012.75,11111222 
WAVCIS,ioos:station:WAVCIS:CSI09:1,2010-05-05T04:00:00Z,29.1015,-89.9782,1012.84,11111222 
WAVCIS,ioos:station:WAVCIS:CSI09:1,2010-05-05T05:00:00Z,29.1015,-89.9782,1012.78,11111222 
WAVCIS,ioos:station:WAVCIS:CSI09:1,2010-05-05T06:00:00Z,29.1015,-89.9782,1012.35,11111222 
WAVCIS,ioos:station:WAVCIS:CSI09:1,2010-05-05T07:00:00Z,29.1015,-89.9782,1011.6,11111222 
WAVCIS,ioos:station:WAVCIS:CSI09:1,2010-05-05T08:00:00Z,29.1015,-89.9782,1011.38,11111222 
WAVCIS,ioos:station:WAVCIS:CSI09:1,2010-05-05T09:00:00Z,29.1015,-89.9782,1011.37,11111222 
WAVCIS,ioos:station:WAVCIS:CSI09:1,2010-05-05T10:00:00Z,29.1015,-89.9782,1011.32,11111222 
WAVCIS,ioos:station:WAVCIS:CSI09:1,2010-05-05T11:00:00Z,29.1015,-89.9782,1011.79,11111222 
WAVCIS,ioos:station:WAVCIS:CSI09:1,2010-05-05T12:00:00Z,29.1015,-89.9782,1012.41,11111222 
WAVCIS,ioos:station:WAVCIS:CSI09:1,2010-05-05T13:00:00Z,29.1015,-89.9782,1013.41,11111222 
WAVCIS,ioos:station:WAVCIS:CSI09:1,2010-05-05T14:00:00Z,29.1015,-89.9782,1013.66,11111222 
WAVCIS,ioos:station:WAVCIS:CSI09:1,2010-05-05T15:00:00Z,29.1015,-89.9782,1014.1,11111222 
WAVCIS,ioos:station:WAVCIS:CSI09:1,2010-05-05T16:00:00Z,29.1015,-89.9782,1014.43,11111222 
WAVCIS,ioos:station:WAVCIS:CSI09:1,2010-05-05T17:00:00Z,29.1015,-89.9782,1014.38,11111222 
WAVCIS,ioos:station:WAVCIS:CSI09:1,2010-05-05T18:00:00Z,29.1015,-89.9782,1013.81,11111222 
WAVCIS,ioos:station:WAVCIS:CSI09:1,2010-05-05T19:00:00Z,29.1015,-89.9782,1013.9,11111222 
WAVCIS,ioos:station:WAVCIS:CSI09:1,2010-05-05T20:00:00Z,29.1015,-89.9782,1013.36,11111222 
WAVCIS,ioos:station:WAVCIS:CSI09:1,2010-05-05T21:00:00Z,29.1015,-89.9782,1012.98,11111222 
WAVCIS,ioos:station:WAVCIS:CSI09:1,2010-05-05T22:00:00Z,29.1015,-89.9782,1012.72,11111222 
WAVCIS,ioos:station:WAVCIS:CSI09:1,2010-05-05T23:00:00Z,29.1015,-89.9782,1012.46,11111222 
WAVCIS,ioos:station:WAVCIS:CSI09:1,2010-05-06T00:00:00Z,29.1015,-89.9782,1012.77,11111222 
WAVCIS,ioos:station:WAVCIS:CSI09:1,2010-05-06T01:00:00Z,29.1015,-89.9782,1013.07,11111222 
WAVCIS,ioos:station:WAVCIS:CSI09:1,2010-05-06T02:00:00Z,29.1015,-89.9782,1013.54,11111222 
WAVCIS,ioos:station:WAVCIS:CSI09:1,2010-05-06T03:00:00Z,29.1015,-89.9782,1014.12,11111222 
WAVCIS,ioos:station:WAVCIS:CSI09:1,2010-05-06T04:00:00Z,29.1015,-89.9782,1014.22,11111222 
WAVCIS,ioos:station:WAVCIS:CSI09:1,2010-05-06T05:00:00Z,29.1015,-89.9782,1013.77,11111222 
WAVCIS,ioos:station:WAVCIS:CSI09:1,2010-05-06T06:00:00Z,29.1015,-89.9782,1013.52,11111222 
WAVCIS,ioos:station:WAVCIS:CSI09:1,2010-05-06T07:00:00Z,29.1015,-89.9782,1012.99,11111222 
WAVCIS,ioos:station:WAVCIS:CSI09:1,2010-05-06T08:00:00Z,29.1015,-89.9782,1012.77,11111222 
WAVCIS,ioos:station:WAVCIS:CSI09:1,2010-05-06T09:00:00Z,29.1015,-89.9782,1012.84,11111222 
WAVCIS,ioos:station:WAVCIS:CSI09:1,2010-05-06T10:00:00Z,29.1015,-89.9782,1012.81,11111222 
WAVCIS,ioos:station:WAVCIS:CSI09:1,2010-05-06T11:00:00Z,29.1015,-89.9782,1013.12,11111222 
WAVCIS,ioos:station:WAVCIS:CSI09:1,2010-05-06T12:00:00Z,29.1015,-89.9782,1013.94,11111222 
WAVCIS,ioos:station:WAVCIS:CSI09:1,2010-05-06T13:00:00Z,29.1015,-89.9782,1014.32,11111222 
WAVCIS,ioos:station:WAVCIS:CSI09:1,2010-05-06T14:00:00Z,29.1015,-89.9782,1014.94,11111222 
WAVCIS,ioos:station:WAVCIS:CSI09:1,2010-05-06T15:00:00Z,29.1015,-89.9782,1015.11,11111222 
WAVCIS,ioos:station:WAVCIS:CSI09:1,2010-05-06T16:00:00Z,29.1015,-89.9782,1015.38,11111222 
WAVCIS,ioos:station:WAVCIS:CSI09:1,2010-05-06T17:00:00Z,29.1015,-89.9782,1015.31,11111222 
WAVCIS,ioos:station:WAVCIS:CSI09:1,2010-05-06T18:00:00Z,29.1015,-89.9782,1015.06,11111222 
WAVCIS,ioos:station:WAVCIS:CSI09:1,2010-05-06T19:00:00Z,29.1015,-89.9782,1014.68,11111222 
WAVCIS,ioos:station:WAVCIS:CSI09:1,2010-05-06T20:00:00Z,29.1015,-89.9782,1014.08,11111222 
WAVCIS,ioos:station:WAVCIS:CSI09:1,2010-05-06T21:00:00Z,29.1015,-89.9782,1013.84,11111222 
WAVCIS,ioos:station:WAVCIS:CSI09:1,2010-05-06T22:00:00Z,29.1015,-89.9782,1013.34,11111222 
WAVCIS,ioos:station:WAVCIS:CSI09:1,2010-05-06T23:00:00Z,29.1015,-89.9782,1013.08,11111222 
WAVCIS,ioos:station:WAVCIS:CSI09:1,2010-05-07T00:00:00Z,29.1015,-89.9782,1013.15,11111222 
WAVCIS,ioos:station:WAVCIS:CSI09:1,2010-05-07T01:00:00Z,29.1015,-89.9782,1013.47,11111222 
WAVCIS,ioos:station:WAVCIS:CSI09:1,2010-05-07T02:00:00Z,29.1015,-89.9782,1013.71,11111222 
WAVCIS,ioos:station:WAVCIS:CSI09:1,2010-05-07T03:00:00Z,29.1015,-89.9782,1013.81,11111222 
WAVCIS,ioos:station:WAVCIS:CSI09:1,2010-05-07T04:00:00Z,29.1015,-89.9782,1014.07,11111222 
WAVCIS,ioos:station:WAVCIS:CSI09:1,2010-05-07T05:00:00Z,29.1015,-89.9782,1013.46,11111222 
WAVCIS,ioos:station:WAVCIS:CSI09:1,2010-05-07T06:00:00Z,29.1015,-89.9782,1012.91,11111222 
WAVCIS,ioos:station:WAVCIS:CSI09:1,2010-05-07T07:00:00Z,29.1015,-89.9782,1012.56,11111222 
WAVCIS,ioos:station:WAVCIS:CSI09:1,2010-05-07T08:00:00Z,29.1015,-89.9782,1012.07,11111222 
WAVCIS,ioos:station:WAVCIS:CSI09:1,2010-05-07T09:00:00Z,29.1015,-89.9782,1012.26,11111222 
WAVCIS,ioos:station:WAVCIS:CSI09:1,2010-05-07T10:00:00Z,29.1015,-89.9782,1012.62,11111222 
WAVCIS,ioos:station:WAVCIS:CSI09:1,2010-05-07T11:00:00Z,29.1015,-89.9782,1012.7,11111222 
WAVCIS,ioos:station:WAVCIS:CSI09:1,2010-05-07T12:00:00Z,29.1015,-89.9782,1013.43,11111222 
WAVCIS,ioos:station:WAVCIS:CSI09:1,2010-05-07T13:00:00Z,29.1015,-89.9782,1013.76,11111222 
WAVCIS,ioos:station:WAVCIS:CSI09:1,2010-05-07T14:00:00Z,29.1015,-89.9782,1014.15,11111222 
WAVCIS,ioos:station:WAVCIS:CSI09:1,2010-05-07T15:00:00Z,29.1015,-89.9782,1014.48,11111222 
WAVCIS,ioos:station:WAVCIS:CSI09:1,2010-05-07T16:00:00Z,29.1015,-89.9782,1014.93,11111222 
WAVCIS,ioos:station:WAVCIS:CSI09:1,2010-05-07T17:00:00Z,29.1015,-89.9782,1015.11,11111222 
WAVCIS,ioos:station:WAVCIS:CSI09:1,2010-05-07T18:00:00Z,29.1015,-89.9782,1015.12,11111222 
WAVCIS,ioos:station:WAVCIS:CSI09:1,2010-05-07T19:00:00Z,29.1015,-89.9782,1015.08,11111222 
WAVCIS,ioos:station:WAVCIS:CSI09:1,2010-05-07T20:00:00Z,29.1015,-89.9782,1014.75,11111222 
WAVCIS,ioos:station:WAVCIS:CSI09:1,2010-05-07T21:00:00Z,29.1015,-89.9782,1014.83,11111222 
WAVCIS,ioos:station:WAVCIS:CSI09:1,2010-05-07T22:00:00Z,29.1015,-89.9782,1014.88,11111222 
WAVCIS,ioos:station:WAVCIS:CSI09:1,2010-05-07T23:00:00Z,29.1015,-89.9782,1014.74,11111222 
WAVCIS,ioos:station:WAVCIS:CSI09:1,2010-05-08T00:00:00Z,29.1015,-89.9782,1015.03,11111222 
WAVCIS,ioos:station:WAVCIS:CSI09:1,2010-05-08T01:00:00Z,29.1015,-89.9782,1014.97,11111222 
WAVCIS,ioos:station:WAVCIS:CSI09:1,2010-05-08T02:00:00Z,29.1015,-89.9782,1015.3,11111222 
WAVCIS,ioos:station:WAVCIS:CSI09:1,2010-05-08T03:00:00Z,29.1015,-89.9782,1015.62,11111222 
WAVCIS,ioos:station:WAVCIS:CSI09:1,2010-05-08T04:00:00Z,29.1015,-89.9782,1016.07,11111222 
WAVCIS,ioos:station:WAVCIS:CSI09:1,2010-05-08T05:00:00Z,29.1015,-89.9782,1016.08,11111222 
WAVCIS,ioos:station:WAVCIS:CSI09:1,2010-05-08T06:00:00Z,29.1015,-89.9782,1016.13,11111222 
WAVCIS,ioos:station:WAVCIS:CSI09:1,2010-05-08T07:00:00Z,29.1015,-89.9782,1015.77,11111222 
WAVCIS,ioos:station:WAVCIS:CSI09:1,2010-05-08T08:00:00Z,29.1015,-89.9782,1015.33,11111222 
WAVCIS,ioos:station:WAVCIS:CSI09:1,2010-05-08T09:00:00Z,29.1015,-89.9782,1015.48,11111222 
WAVCIS,ioos:station:WAVCIS:CSI09:1,2010-05-08T10:00:00Z,29.1015,-89.9782,1015.73,11111222 
WAVCIS,ioos:station:WAVCIS:CSI09:1,2010-05-08T11:00:00Z,29.1015,-89.9782,1016.58,11111222 
WAVCIS,ioos:station:WAVCIS:CSI09:1,2010-05-08T12:00:00Z,29.1015,-89.9782,1017.15,11111222 
WAVCIS,ioos:station:WAVCIS:CSI09:1,2010-05-08T13:00:00Z,29.1015,-89.9782,1018.2,11111222 
WAVCIS,ioos:station:WAVCIS:CSI09:1,2010-05-08T14:00:00Z,29.1015,-89.9782,1018.4,11111222 
WAVCIS,ioos:station:WAVCIS:CSI09:1,2010-05-08T15:00:00Z,29.1015,-89.9782,1018.86,11111222 
WAVCIS,ioos:station:WAVCIS:CSI09:1,2010-05-08T16:00:00Z,29.1015,-89.9782,1018.89,11111222 
WAVCIS,ioos:station:WAVCIS:CSI09:1,2010-05-08T17:00:00Z,29.1015,-89.9782,1018.94,11111222 
WAVCIS,ioos:station:WAVCIS:CSI09:1,2010-05-08T18:00:00Z,29.1015,-89.9782,1018.41,11111222 
WAVCIS,ioos:station:WAVCIS:CSI09:1,2010-05-08T19:00:00Z,29.1015,-89.9782,1018.2,11111222 
WAVCIS,ioos:station:WAVCIS:CSI09:1,2010-05-08T20:00:00Z,29.1015,-89.9782,1018.02,11111222 
WAVCIS,ioos:station:WAVCIS:CSI09:1,2010-05-08T21:00:00Z,29.1015,-89.9782,1017.77,11111222 
WAVCIS,ioos:station:WAVCIS:CSI09:1,2010-05-08T22:00:00Z,29.1015,-89.9782,1017.72,11111222 
WAVCIS,ioos:station:WAVCIS:CSI09:1,2010-05-08T23:00:00Z,29.1015,-89.9782,1017.51,11111222 
WAVCIS,ioos:station:WAVCIS:CSI09:1,2010-05-09T00:00:00Z,29.1015,-89.9782,1017.89,11111222 
WAVCIS,ioos:station:WAVCIS:CSI09:1,2010-05-09T01:00:00Z,29.1015,-89.9782,1018.56,11111222 
WAVCIS,ioos:station:WAVCIS:CSI09:1,2010-05-09T02:00:00Z,29.1015,-89.9782,1019.1,11111222 
WAVCIS,ioos:station:WAVCIS:CSI09:1,2010-05-09T03:00:00Z,29.1015,-89.9782,1019.75,11111222 
WAVCIS,ioos:station:WAVCIS:CSI09:1,2010-05-09T04:00:00Z,29.1015,-89.9782,1020.13,11111222 
WAVCIS,ioos:station:WAVCIS:CSI09:1,2010-05-09T05:00:00Z,29.1015,-89.9782,1020.16,11111222 
WAVCIS,ioos:station:WAVCIS:CSI09:1,2010-05-09T06:00:00Z,29.1015,-89.9782,1019.77,11111222 
WAVCIS,ioos:station:WAVCIS:CSI09:1,2010-05-09T07:00:00Z,29.1015,-89.9782,1019.39,11111222 
WAVCIS,ioos:station:WAVCIS:CSI09:1,2010-05-09T08:00:00Z,29.1015,-89.9782,1019.05,11111222 
WAVCIS,ioos:station:WAVCIS:CSI09:1,2010-05-09T09:00:00Z,29.1015,-89.9782,1019.12,11111222 
WAVCIS,ioos:station:WAVCIS:CSI09:1,2010-05-09T10:00:00Z,29.1015,-89.9782,1019.17,11111222 
WAVCIS,ioos:station:WAVCIS:CSI09:1,2010-05-09T11:00:00Z,29.1015,-89.9782,1019.93,11111222 
WAVCIS,ioos:station:WAVCIS:CSI09:1,2010-05-09T12:00:00Z,29.1015,-89.9782,1021.0,11111222 
WAVCIS,ioos:station:WAVCIS:CSI09:1,2010-05-09T13:00:00Z,29.1015,-89.9782,1021.19,11111222 
WAVCIS,ioos:station:WAVCIS:CSI09:1,2010-05-09T14:00:00Z,29.1015,-89.9782,1021.94,11111222 
WAVCIS,ioos:station:WAVCIS:CSI09:1,2010-05-09T15:00:00Z,29.1015,-89.9782,1021.97,11111222 
WAVCIS,ioos:station:WAVCIS:CSI09:1,2010-05-09T16:00:00Z,29.1015,-89.9782,1022.32,11111222 
WAVCIS,ioos:station:WAVCIS:CSI09:1,2010-05-09T17:00:00Z,29.1015,-89.9782,1022.28,11111222 
WAVCIS,ioos:station:WAVCIS:CSI09:1,2010-05-09T18:00:00Z,29.1015,-89.9782,1022.01,11111222 
WAVCIS,ioos:station:WAVCIS:CSI09:1,2010-05-09T19:00:00Z,29.1015,-89.9782,1021.73,11111222 
WAVCIS,ioos:station:WAVCIS:CSI09:1,2010-05-09T20:00:00Z,29.1015,-89.9782,1021.11,11111222 
WAVCIS,ioos:station:WAVCIS:CSI09:1,2010-05-09T21:00:00Z,29.1015,-89.9782,1020.16,11111222 
WAVCIS,ioos:station:WAVCIS:CSI09:1,2010-05-09T22:00:00Z,29.1015,-89.9782,1019.97,11111222 
WAVCIS,ioos:station:WAVCIS:CSI09:1,2010-05-09T23:00:00Z,29.1015,-89.9782,1020.16,11111222 
WAVCIS,ioos:station:WAVCIS:CSI09:1,2010-05-10T00:00:00Z,29.1015,-89.9782,1020.62,11111222 
WAVCIS,ioos:station:WAVCIS:CSI09:1,2010-05-10T01:00:00Z,29.1015,-89.9782,1020.78,11111222 
WAVCIS,ioos:station:WAVCIS:CSI09:1,2010-05-10T02:00:00Z,29.1015,-89.9782,1020.89,11111222 
WAVCIS,ioos:station:WAVCIS:CSI09:1,2010-05-10T03:00:00Z,29.1015,-89.9782,1021.05,11111222 
WAVCIS,ioos:station:WAVCIS:CSI09:1,2010-05-10T04:00:00Z,29.1015,-89.9782,1020.59,11111222 
WAVCIS,ioos:station:WAVCIS:CSI09:1,2010-05-10T05:00:00Z,29.1015,-89.9782,1020.12,11111222 
WAVCIS,ioos:station:WAVCIS:CSI09:1,2010-05-10T06:00:00Z,29.1015,-89.9782,1019.67,11111222 
WAVCIS,ioos:station:WAVCIS:CSI09:1,2010-05-10T07:00:00Z,29.1015,-89.9782,1018.84,11111222 
WAVCIS,ioos:station:WAVCIS:CSI09:1,2010-05-10T08:00:00Z,29.1015,-89.9782,1018.37,11111222 
WAVCIS,ioos:station:WAVCIS:CSI09:1,2010-05-10T09:00:00Z,29.1015,-89.9782,1018.26,11111222 
WAVCIS,ioos:station:WAVCIS:CSI09:1,2010-05-10T10:00:00Z,29.1015,-89.9782,1018.48,11111222 
WAVCIS,ioos:station:WAVCIS:CSI09:1,2010-05-10T11:00:00Z,29.1015,-89.9782,1018.85,11111222 
WAVCIS,ioos:station:WAVCIS:CSI09:1,2010-05-10T12:00:00Z,29.1015,-89.9782,1018.82,11111222 
WAVCIS,ioos:station:WAVCIS:CSI09:1,2010-05-10T13:00:00Z,29.1015,-89.9782,1018.66,11111222 
WAVCIS,ioos:station:WAVCIS:CSI09:1,2010-05-10T14:00:00Z,29.1015,-89.9782,1018.8,11111222 
WAVCIS,ioos:station:WAVCIS:CSI09:1,2010-05-10T15:00:00Z,29.1015,-89.9782,1019.12,11111222 
WAVCIS,ioos:station:WAVCIS:CSI09:1,2010-05-10T16:00:00Z,29.1015,-89.9782,1019.1,11111222 
WAVCIS,ioos:station:WAVCIS:CSI09:1,2010-05-10T17:00:00Z,29.1015,-89.9782,1018.82,11111222 
WAVCIS,ioos:station:WAVCIS:CSI09:1,2010-05-10T18:00:00Z,29.1015,-89.9782,1018.39,11111222 
WAVCIS,ioos:station:WAVCIS:CSI09:1,2010-05-10T19:00:00Z,29.1015,-89.9782,1017.91,11111222 
WAVCIS,ioos:station:WAVCIS:CSI09:1,2010-05-10T20:00:00Z,29.1015,-89.9782,1017.45,11111222 
WAVCIS,ioos:station:WAVCIS:CSI09:1,2010-05-10T21:00:00Z,29.1015,-89.9782,1017.26,11111222 
WAVCIS,ioos:station:WAVCIS:CSI09:1,2010-05-10T22:00:00Z,29.1015,-89.9782,1016.73,11111222 
WAVCIS,ioos:station:WAVCIS:CSI09:1,2010-05-10T23:00:00Z,29.1015,-89.9782,1016.61,11111222 
WAVCIS,ioos:station:WAVCIS:CSI09:1,2010-05-11T00:00:00Z,29.1015,-89.9782,1016.63,11111222 
WAVCIS,ioos:station:WAVCIS:CSI09:1,2010-05-11T01:00:00Z,29.1015,-89.9782,1016.42,11111222 
WAVCIS,ioos:station:WAVCIS:CSI09:1,2010-05-11T02:00:00Z,29.1015,-89.9782,1016.57,11111222 
WAVCIS,ioos:station:WAVCIS:CSI09:1,2010-05-11T03:00:00Z,29.1015,-89.9782,1016.73,11111222 
WAVCIS,ioos:station:WAVCIS:CSI09:1,2010-05-11T04:00:00Z,29.1015,-89.9782,1016.04,11111222 
WAVCIS,ioos:station:WAVCIS:CSI09:1,2010-05-11T05:00:00Z,29.1015,-89.9782,1015.22,11111222 
WAVCIS,ioos:station:WAVCIS:CSI09:1,2010-05-11T06:00:00Z,29.1015,-89.9782,1015.47,11111222 
WAVCIS,ioos:station:WAVCIS:CSI09:1,2010-05-11T07:00:00Z,29.1015,-89.9782,1015.41,11111222 
WAVCIS,ioos:station:WAVCIS:CSI09:1,2010-05-11T08:00:00Z,29.1015,-89.9782,1015.36,11111222 
WAVCIS,ioos:station:WAVCIS:CSI09:1,2010-05-11T09:00:00Z,29.1015,-89.9782,1015.55,11111222 
WAVCIS,ioos:station:WAVCIS:CSI09:1,2010-05-11T10:00:00Z,29.1015,-89.9782,1015.87,11111222 
WAVCIS,ioos:station:WAVCIS:CSI09:1,2010-05-11T11:00:00Z,29.1015,-89.9782,1015.96,11111222 
WAVCIS,ioos:station:WAVCIS:CSI09:1,2010-05-11T12:00:00Z,29.1015,-89.9782,1016.22,11111222 
WAVCIS,ioos:station:WAVCIS:CSI09:1,2010-05-11T13:00:00Z,29.1015,-89.9782,1017.28,11111222 
WAVCIS,ioos:station:WAVCIS:CSI09:1,2010-05-11T14:00:00Z,29.1015,-89.9782,1018.03,11111222 
WAVCIS,ioos:station:WAVCIS:CSI09:1,2010-05-11T15:00:00Z,29.1015,-89.9782,1018.6,11111222 
WAVCIS,ioos:station:WAVCIS:CSI09:1,2010-05-11T16:00:00Z,29.1015,-89.9782,1018.71,11111222 
WAVCIS,ioos:station:WAVCIS:CSI09:1,2010-05-11T17:00:00Z,29.1015,-89.9782,1018.68,11111222 
WAVCIS,ioos:station:WAVCIS:CSI09:1,2010-05-11T18:00:00Z,29.1015,-89.9782,1018.43,11111222 
WAVCIS,ioos:station:WAVCIS:CSI09:1,2010-05-11T19:00:00Z,29.1015,-89.9782,1018.16,11111222 
WAVCIS,ioos:station:WAVCIS:CSI09:1,2010-05-11T20:00:00Z,29.1015,-89.9782,1017.65,11111222 
WAVCIS,ioos:station:WAVCIS:CSI09:1,2010-05-11T21:00:00Z,29.1015,-89.9782,1016.9,11111222 